Simultaneous Nadir Overpasses (SNOs) Predictions

Prediction of SNOs between GOES-15 and NOAA-20 Satellite Orbit:

Table of predicted SNOs for the next 14.0 days since TLE Epoch: 2/21/2020
Index Date Time (GOES-15) GOES-15 Lat,Lon NOAA-20 Lat,Lon Distance(km) Time Diff (sec)
1 02/21/2020 21:59:06 0.36,-128.44 0.42,-128.21 26.35 80
2 02/24/2020 10:02:11 -0.36,-128.43 -0.27,-128.96 59.13 80
3 02/25/2020 09:43:27 -0.35,-128.44 -1.26,-124.42 457.83 80
4 02/26/2020 22:02:44 0.36,-128.47 0.09,-129.73 143.39 80
5 02/27/2020 21:46:39 0.36,-128.47 1.09,-125.19 373.39 80
6 02/29/2020 10:08:28 -0.36,-128.45 0.11,-130.46 229.60 80
7 03/01/2020 09:47:04 -0.35,-128.45 -0.94,-125.94 286.64 80
8 03/02/2020 22:09:01 0.35,-128.46 -0.28,-131.23 315.90 80
9 03/03/2020 21:52:57 0.35,-128.46 0.77,-126.71 200.02 80
10 03/05/2020 10:14:45 -0.34,-128.42 0.43,-131.97 404.02 80
11 03/06/2020 09:53:21 -0.34,-128.41 -0.56,-127.44 111.23 80




NCC Satellite Simultaneous Nadir Overpasses (SNOs) Prediction Service
